Terug naar catalogus

SL-12 DEB

LostHEO
NORAD 26802·DEBRIS·🇷🇺 Russia

Gelanceerd Dec 24, 1985 vanaf Baikonur Cosmodrome

Loading…

Volgende Passages (komende 24 uur)

TLE

VerouderdSource: Space-Track

Epoch: Feb 17, 2003, 17:48 UTC

1 26802U 85118Z   03048.74181884 +.00000000 +00000-0 +10000-3 0  9991
2 26802 064.8211 166.9492 4729507 351.4123 001.2704 05.61322920038265

Volg SL-12 DEB in realtime met AllMySat

Download on the App Store